User: anonymous   Login
Location: Proctor
(47.8934°N, 114.3048°W)
Time: 10:23:10
(UTC+00:00)
Language:

XW-2C - Orbit

View from above orbital plane
View from above orbital plane
View from above satellite
View from above satellite

Ground track
Ground track

The orbit data is extracted from the following two-line orbital elements,

1 40906U 15049H   22175.79235058  .00005256  00000-0  25276-3 0  9997
2 40906  97.4925 179.1463 0013337 341.3386 193.5527 15.19158653374036
Epoch (UTC): 24 June 2022 19:00:59
Eccentricity: 0.0013337
inclination: 97.4925°
perigee height: 499 km
apogee height: 517 km
right ascension of ascending node: 179.1463°
argument of perigee: 341.3386°
revolutions per day: 15.19158653
mean anomaly at epoch: 193.5527°
orbit number at epoch: 37403

The dashed part of the orbit path shows where the satellite is in the earth's shadow,  

DLR